Regional Weather Roundup
Issued by NWS Upton, NY

Current Version | Previous Version | Graphics & Text | Print | Product List | Glossary Off
Versions: 1 2 3 4 5 6 7 8 9 10 11 12 13 14 15 16 17 18 19 20 21 22 23 24 25 26 27 28 29 30 31 32 33 34 35 36 37 38 39 40 41 42 43 44 45 46 47 48 49 50

000
ASUS41 KOKX 221905
RWROKX
REGIONAL WEATHER ROUNDUP
NATIONAL WEATHER SERVICE NEW YORK NY
300 PM EDT TUE JUL 22 2014

NOTE: "FAIR" INDICATES FEW OR NO CLOUDS BELOW 12,000 FEET WITH NO
SIGNIFICANT WEATHER AND/OR OBSTRUCTIONS TO VISIBILITY.

NYZ071-072-176-178-NJZ106-104-222000-
NEW YORK CITY METRO AREA


CITY           SKY/WX    TMP DP  RH WIND       PRES   REMARKS
CENTRAL PARK   SUNNY     85  67  54 MISG      30.13F
LAGUARDIA APRT PTSUNNY   85  66  53 S18       30.10F
KENNEDY INTL   MOSUNNY   82  67  60 S15       30.14S
NEWARK/LIBERTY MOSUNNY   89  66  46 W14       30.10F HX  91
BRNX BOT. GARD   N/A     88  64  45 W5        30.12F
TETERBORO      MOSUNNY   90  65  43 SW12G17   30.08F HX  92
$$

NYZ177-179-078>081-222000-
LONG ISLAND NEW YORK

CITY           SKY/WX    TMP DP  RH WIND       PRES   REMARKS
FARMINGDALE    SUNNY     82  67  60 SW14      30.12F
ISLIP          MOSUNNY   83  67  58 S14G21    30.11S
SHIRLEY        SUNNY     80  67  64 S16       30.13F
WESTHAMPTON    SUNNY     80  66  62 SW13G18   30.14F
MONTAUK POINT    N/A     80  67  64 S8        30.13F
$$

NYZ052-065-067-222000-
HUDSON VALLEY

CITY           SKY/WX    TMP DP  RH WIND       PRES   REMARKS
WHITE PLAINS   MOSUNNY   85  66  53 CALM      30.10F
NEWBURGH       MOSUNNY   86  70  58 W9        30.10  HX  90
MONTGOMERY     MOSUNNY   86  68  54 S12       30.08F
POUGHKEEPSIE   SUNNY     87  67  51 SW9       30.06F HX  90
ALBANY         MOSUNNY   86  69  56 S7        30.05F HX  90
$$

NJZ001-105-106-008-010-013-015-019>022-104-222000-
NEW JERSEY

CITY           SKY/WX    TMP DP  RH WIND       PRES   REMARKS
NEWARK/LIBERTY MOSUNNY   89  66  46 W14       30.10F HX  91
TETERBORO      MOSUNNY   90  65  43 SW12G17   30.08F HX  92
CALDWELL       SUNNY     86  66  51 S8        30.11F
MORRISTOWN     PTSUNNY   88  70  55 SW13      30.11F HX  92
SOMERVILLE     PTSUNNY   85  69  58 VRB5      30.10F
LINDEN         MOCLDY    88  66  47 W7        30.12F HX  91
SUSSEX         PTSUNNY   85  69  58 VRB6      30.11F
ANDOVER          N/A     83  68  60 SW8       30.12F
TRENTON        MOSUNNY   85  67  54 SW8       30.12F
MILLVILLE      SUNNY     83  63  50 S6        30.16S
ATLANTIC CITY  MOSUNNY   82  65  56 S12       30.16S
WRIGHTSTOWN    MOSUNNY   86  68  54 SW8       30.10F HX  90
TOMS RIVER     MOSUNNY   88  66  48 S5        30.13F HX  90
BELMAR         MOSUNNY   82  66  57 S8        30.13F
$$

PAZ047>061-062-071-222000-
EASTERN PENNSYLVANIA

CITY           SKY/WX    TMP DP  RH WIND       PRES   REMARKS
PHILADELPHIA   MOSUNNY   86  65  49 SW10      30.13F
ALLENTOWN      MOSUNNY   85  69  58 W10       30.13F
SCRANTON       MOSUNNY   86  67  52 SW10G16   30.12F
$$

CTZ002-004>006-009-010-012-RIZ004-006-007-MAZ004-011-015-222000-
SOUTHERN NEW ENGLAND
 IN CT

CITY           SKY/WX    TMP DP  RH WIND       PRES   REMARKS
BRADLEY INTL   MOSUNNY   89  63  41 SW10      30.06F HX  90
HARTFORD       MOSUNNY   87  64  46 SW5       30.06F
DANBURY        MOSUNNY   84  66  54 SW9       30.11F
WTRBRY/OXFORD  PTSUNNY   84  66  54 VRB6      30.14F
BRIDGEPORT     SUNNY     87  66  49 SW13      30.09F
MERIDEN        MOSUNNY   88  66  48 S10       30.08F HX  90
NEW HAVEN      MOSUNNY   86  66  51 SW9       30.09F
CHESTER        FAIR      82  64  54 SW10G17   30.11F
GROTON         SUNNY     78  68  71 SW10      30.10F
WILLIMANTIC    PTSUNNY   87  64  46 VRB5G17   30.08F

 IN RI

CITY           SKY/WX    TMP DP  RH WIND       PRES   REMARKS
PROVIDENCE     MOSUNNY   85  70  60 S14       30.08F
BLOCK ISLAND   SUNNY     75  64  69 SW17G23   30.13F
WESTERLY       SUNNY     81  65  58 S12       30.11F

 IN MA

CITY           SKY/WX    TMP DP  RH WIND       PRES   REMARKS
BOSTON         MOSUNNY   82  68  62 SE13      30.05F
WORCESTER      SUNNY     84  62  47 SW12      30.11F
WESTFIELD      PTSUNNY   89  62  40 SW8       30.06F
PROVINCETOWN   SUNNY     82  70  65 S12       30.09F
NANTUCKET      SUNNY     71  65  81 S13       30.13F
$$

ANZ330-335-338-340-345-350-353-355-222000-
COASTAL MARINE OBSERVATIONS


STATION/POSITION TIME  SKY/WX   TEMP    WIND        PRES    VSBY  WAVE
                                AIR SEA DIR/SP/G                  HT/PER
                 (UTC)          (F)     (DEG/KT/KT) (MB)    (MI)  (FT/S)
NY HARB ENTRANCE NOT AVBL
4S FIRE IS       NOT AVBL
23SW MTP         1900            73 71              1020.2          2/ 7
HUDSON CANYON    1900            73 74  230/  8/  8 1021.2          2/ 7
EXECUTION ROCKS  1900            81 73  210/ 10/ 12   N/A
WESTERN LI SOUND 1900            81     220/  8/  8   N/A           0
CENTRAL LI SOUND 1900            77 75  190/  6/  8   N/A           1
EASTERN LI SOUND 1800            72 67  230/  6/ 10   N/A
ROBBINS REEF     1900            77     160/ 19/ 20   N/A
$$


>>>>>>>>>>>>>>>>>>>>>>>>>>>> KEY <<<<<<<<<<<<<<<<<<<<<<<<<<<
>                                                          <
>     SKY/WX - SKY CONDITION/PRESENT WEATHER               <
>     TMP    - TEMPERATURE IN FAHRENHEIT                   <
>     DP     - DEWPOINT IN FAHRENHEIT                      <
>     RH     - RELATIVE HUMIDITY IN PERCENT                <
>     WIND   - DIRECTION AND SPEED IN MPH                  <
>     PRES   - MEAN SEA LEVEL PRESSURE IN INCHES OF HG     <
>     WCI    - WIND CHILL INDEX                            <
>     VSB    - VISIBILITY IN MILES                         <
>     HX     - HEAT INDEX                                  <
>     TC     - TEMPERATURE IN CELSIUS                      <
>     VRB    - VARIABLE WIND DIRECTION                     <
>                                                          <
>>>>>>>>>>>>>>>>>>>>>>>>>>>> KEY <<<<<<<<<<<<<<<<<<<<<<<<<<<




USA.gov is the U.S. government's official web portal to all federal, state and local government web resources and services.